• Join FlightAware (Why Join?)
  • Login
  • US Flag GB Flag 
05:01 EDT


 

Airport Tracker/Info


-or-


 

Live Flight TrackerFlight Track Log ✈ UPS1337 ✈ 01-Mar-2014 ✈ KRDU - KSDF

Flight Track Log - Related Links

Times and Time Zones

All times are in EST time to prevent confusion due to time zone crossing. See the UPS1337 flight status page for this flight to view local times or setup timezone preferences in your user account.

Time Position Orientation Groundspeed Altitude Reporting Facility
EST Latitude Longitude Course Direction KTS MPH feet Rate Location/Type
23:57 35.8936 -78.7783 264° West 152 175 1,600  Level Washington Center
23:57 35.8978 -78.7761 25° Northeast 152 175 1,900 1,920 Climbing Washington Center
23:58 35.9256 -78.7644 19° North 168 193 3,100 1,860 Climbing Washington Center
23:58 35.9458 -78.7797 329° Northwest 229 264 3,800 2,400 Climbing Washington Center
23:59 35.9522 -78.8283 279° West 232 267 5,600 3,360 Climbing Washington Center
00:00 35.9289 -78.9114 251° West 252 290 9,400 2,880 Climbing Washington Center
00:01 35.8519 -78.9737 256° West  Level FlightAware Approximate
00:01 35.9053 -79.0067 253° West 288 331 11,500  Level Washington Center
00:02 35.8493 -79.0924 264° West  Level FlightAware Approximate
00:02 35.8764 -79.1292 254° West 348 400 14,600  Level Washington Center
00:03 35.8636 -79.2519 263° West 377 434 17,500 2,460 Climbing Washington Center
00:04 35.8928 -79.3717 287° West 387 445 19,700 2,340 Climbing Washington Center
00:05 35.9272 -79.5072 287° West 395 455 22,400 2,520 Climbing Washington Center
00:06 35.9664 -79.6506 289° West 410 472 24,800 2,400 Climbing Washington Center
00:07 35.9936 -79.7656 286° West 402 463 27,200 2,100 Climbing Washington Center
00:08 36.0281 -79.8983 288° West 402 463 29,000 1,680 Climbing Washington Center
00:09 36.0547 -80.0064 287° West 411 473 30,200 1,560 Climbing Atlanta Center
00:10 36.0903 -80.1458 288° West 416 479 31,800 900 Climbing Atlanta Center
00:11 36.1258 -80.2806 288° West 416 479 32,000 60 Climbing Atlanta Center
00:12 36.1569 -80.4128 286° West 411 473 32,000  Level Atlanta Center
00:13 36.1944 -80.5578 288° West 411 473 32,000  Level Atlanta Center
00:14 36.2317 -80.6925 289° West 411 473 32,000  Level Atlanta Center
00:15 36.2622 -80.8225 286° West 406 467 32,000  Level Atlanta Center
00:16 36.3072 -80.9444 295° West 401 461 32,000  Level Atlanta Center
00:17 36.3539 -81.0717 295° West 401 461 32,000  Level Atlanta Center
00:18 36.3986 -81.1936 295° West 401 461 32,000  Level Atlanta Center
00:19 36.4431 -81.3186 294° West 395 455 32,000  Level Atlanta Center
00:20 36.4875 -81.4461 293° West 395 455 32,000  Level Atlanta Center
00:21 36.5231 -81.5458 294° West 395 455 32,000  Level Atlanta Center
00:22 36.5872 -81.7317 293° West 401 461 32,000  Level Indianapolis Center
00:23 36.6328 -81.8603 294° West 401 461 32,000  Level Indianapolis Center
00:24 36.6764 -81.9883 293° West 402 463 32,000  Level Indianapolis Center
00:25 36.7206 -82.1172 293° West 402 463 32,000  Level Indianapolis Center
00:26 36.7650 -82.2450 294° West 402 463 32,000  Level Indianapolis Center
00:27 36.8092 -82.3722 293° West 402 463 32,000  Level Indianapolis Center
00:28 36.8517 -82.4978 293° West 397 457 32,000  Level Indianapolis Center
00:29 36.8947 -82.6231 293° West 395 455 32,000  Level Indianapolis Center
00:30 36.9369 -82.7486 293° West 395 455 32,000  Level Indianapolis Center
00:31 36.9806 -82.8808 292° West 396 456 32,000  Level Indianapolis Center
00:32 37.0206 -82.9981 293° West 396 456 32,000  Level Indianapolis Center
00:33 37.0703 -83.1469 293° West 399 459 32,000  Level Indianapolis Center
00:34 37.1122 -83.2736 293° West 398 458 32,000  Level Indianapolis Center
00:35 37.1533 -83.3992 292° West 395 455 32,000  Level Indianapolis Center
00:36 37.1958 -83.5250 293° West 393 452 32,000 -1,080 Level Indianapolis Center
00:37 37.2381 -83.6544 292° West 397 457 29,900 -2,220 Descending Indianapolis Center
00:38 37.2828 -83.7925 292° West 418 481 27,600 -2,340 Descending Indianapolis Center
00:39 37.3294 -83.9317 293° West 427 491 25,200 -2,220 Descending Indianapolis Center
00:40 37.3742 -84.0706 292° West 427 491 23,200 -2,040 Descending Indianapolis Center
00:41 37.4175 -84.2044 292° West 420 483 21,200 -2,040 Descending Indianapolis Center
00:42 37.4597 -84.3353 292° West 409 471 19,100 -1,620 Descending Indianapolis Center
00:48 37.7179 -85.0397 312° West 285 328 9,900 -1,500 Descending FlightAware ADS-B (KBRY)
00:49 37.7696 -85.1113 312° West 278 320 8,900 -1,020 Descending FlightAware ADS-B (KBRY)
00:50 37.8105 -85.1896 294° West 269 310 7,900 -1,020 Descending FlightAware ADS-B (KBRY)
00:51 37.8441 -85.2852 294° West 260 299 6,800 -1,080 Descending FlightAware ADS-B (KBRY)
00:52 37.8589 -85.3680 280° West 245 282 5,700 -1,080 Descending FlightAware ADS-B (KBRY)
00:53 37.8719 -85.4541 281° West 243 280 4,700 -1,020 Descending FlightAware ADS-B (KBRY)
00:54 37.8971 -85.5334 307° West 256 295 3,600 -900 Descending FlightAware ADS-B (KBRY)
00:55 37.9393 -85.6014 308° West 233 268 2,900 -360 Descending FlightAware ADS-B (KBRY)
00:57 37.9832 -85.6616 340° North 200 230 2,900  Level FlightAware ADS-B (KBRY)
00:58 38.0370 -85.6800 346° North 200 230 2,900 -420 Level FlightAware ADS-B (KBRY)
00:59 38.0843 -85.6962 344° North 153 176 2,100 -900 Descending FlightAware ADS-B (KBRY)
00:59 38.1159 -85.7072 345° North 151 174 1,400 -780 Descending FlightAware ADS-B (KBRY)
01:00 38.1500 -85.7167 345° North 143 165 900 -660 Descending Louisville TRACON